Location: Unspecified
(0.0000°N, 0.0000°E)
Time: 16:44:29
(UTC+00:00)

Interbol-2 - Pass Details

Date: 12 June 2023
Orbit: 911 x 19062 km, 62.8° (Epoch: 28 September)

Event Time Altitude Azimuth Distance (km) Brightness Sun altitude
Rises 00:24:56 0° 272° (W) 12,958 11.7 -66.1°
Reaches altitude 10° 03:30:05 10° 350° (N) 21,461 13.0 -34.0°
Maximum altitude 04:46:10 21° 37° (NE) 10,068 11.9 -16.9°
Drops below altitude 10° 05:04:15 10° 79° (E) 6,877 11.7 -12.8°
Sets 05:09:28 0° 96° (E) 6,611 11.4 -11.6°
